Voltar ao catálogo

STARLINK-34323

AtivoComunicaçõesVLEO
NORAD 64219·PAYLOAD·🇺🇸 United States

Lançado May 31, 2025 de Vandenberg Space Force Base

Loading…

Próximas Passagens (próximas 24 horas)

TLE

AtualizadoSource: CelesTrak SupGP

Época: Sep 15, 2026, 03:11 UTC

1 64219C 25117S   26258.13312500 -.00049087  00000+0 -14503-2 0  2588
2 64219  53.1570 238.4834 0001321  90.3807  27.0589 15.34413892    13

Acompanhe STARLINK-34323 em tempo real com AllMySat

Download on the App Store